Home   Weather   Groningen   Past weeks

Flag for Netherlands Past Weather in Groningen, Netherlands — Yesterday and Last 2 Weeks

Now
25 °F

Ice fog.


Feels Like: 20 °F
Forecast: 22 / 39 °F
Wind: 3 mph from Southeast

Location: Groningen Eelde Airport

Current Time: Jan 22, 2017 at 7:08:14 am

Latest Report: Jan 22, 2017 at 6:25 am


Visibility: 2 mi

Pressure: 30.33 "Hg

Humidity: 100%

Dew Point: 25 °F

Location of GroningenLocation

Past Weather in Groningen — Graph

°F

Groningen Temperature Yesterday

Maximum temperature yesterday: 39 °F (at 1:25 pm)
Minimum temperature yesterday: 30 °F (at 9:25 pm)
Average temperature yesterday: 35 °F

High & Low Weather Summary for the Past Weeks

 TemperatureHumidityPressure
High48 °F (Jan 11, 12:55 pm)100% (Jan 7, 5:25 am)30.72 "Hg (Jan 7, 5:25 am)
Low16 °F (Jan 17, 1:25 am)61% (Jan 14, 6:25 am)29.09 "Hg (Jan 13, 1:55 am)
Average33 °F92%30.15 "Hg
* Reported Jan 7 5:25 am — Jan 22 5:55 am, Groningen, Weather by CustomWeather, © 2017

Note: Actual official high and low records may vary slightly from our data, if they occured in-between our weather recording intervals... More about our weather records

Advertising

Groningen Weather History for the Previous 24 Hours

Scroll right to see more
 ConditionsComfort  
Time TempWeatherWind HumidityBarometerVisibility
5:55 am
Sun, Jan 22
27 °FIce fog.3 mph93%30.33 "Hg2 mi
5:25 am27 °FIce fog.3 mph100%30.33 "Hg2 mi
4:55 am27 °FIce fog.3 mph100%30.33 "Hg2 mi
4:25 am27 °FIce fog.3 mph100%30.36 "Hg2 mi
3:55 am27 °FIce fog.2 mph100%30.36 "Hg2 mi
3:25 am28 °FIce fog.5 mph100%30.36 "Hg2 mi
2:55 am28 °FIce fog.6 mph93%30.36 "Hg2 mi
2:25 am28 °FIce fog.3 mph100%30.36 "Hg2 mi
1:55 am28 °FIce fog.5 mph100%30.36 "Hg2 mi
1:25 am28 °FIce fog.5 mph100%30.36 "Hg2 mi
12:55 am28 °FIce fog.3 mph100%30.36 "Hg2 mi
12:25 am30 °FIce fog.2 mph100%30.36 "Hg2 mi
11:55 pm
Sat, Jan 21
30 °FIce fog.5 mph93%30.39 "Hg2 mi
11:25 pm30 °FIce fog.5 mph93%30.36 "Hg2 mi
10:55 pm30 °FIce fog.6 mph100%30.39 "Hg3 mi
10:25 pm30 °FIce fog.5 mph100%30.39 "Hg3 mi
9:55 pm30 °FIce fog.5 mph100%30.39 "Hg3 mi
9:25 pm30 °FIce fog.5 mph93%30.39 "Hg3 mi
8:55 pm32 °FChilly.6 mph93%30.39 "Hg4 mi
8:25 pm32 °FChilly.7 mph93%30.39 "Hg5 mi
7:55 pm34 °FChilly.6 mph93%30.39 "Hg6 mi
7:25 pm34 °FChilly.7 mph93%30.39 "HgN/A
6:55 pm34 °FChilly.7 mph93%30.39 "HgN/A
6:25 pm36 °FChilly.8 mph87%30.39 "HgN/A
5:55 pm34 °FChilly.8 mph93%30.39 "HgN/A
5:25 pm36 °FChilly.7 mph87%30.39 "HgN/A
4:55 pm36 °FChilly.7 mph87%30.39 "HgN/A
4:25 pm37 °FChilly.7 mph87%30.39 "HgN/A
3:55 pm39 °FChilly.7 mph81%30.42 "HgN/A
3:25 pm39 °FChilly.8 mph81%30.42 "HgN/A
2:55 pm39 °FChilly.8 mph87%30.42 "HgN/A
2:25 pm39 °FScattered clouds.9 mph87%30.42 "HgN/A
1:55 pm39 °FPartly sunny.8 mph87%30.45 "HgN/A
1:25 pm39 °FOvercast.7 mph87%30.45 "HgN/A
12:55 pm37 °FOvercast.7 mph93%30.45 "Hg6 mi
12:25 pm37 °FOvercast.5 mph93%30.48 "Hg4 mi
11:55 am37 °FFog.6 mph93%30.48 "Hg3 mi
11:25 am36 °FFog.5 mph100%30.48 "Hg2 mi
10:55 am36 °FFog.3 mph100%30.48 "Hg2 mi
10:25 am36 °FFog.3 mph93%30.48 "Hg1 mi
9:55 am36 °FFog.5 mph93%30.48 "Hg1 mi
9:25 am34 °FFog.2 mph100%30.48 "Hg1 mi
8:55 am34 °FFog.2 mph100%30.48 "Hg1 mi
8:25 am34 °FFog.1 mph100%30.48 "Hg1 mi
7:55 am34 °FFog.3 mph100%30.48 "Hg1 mi
7:25 am34 °FFog.5 mph100%30.48 "Hg1 mi
Weather by CustomWeather, © 2017

See weather overviewHow to use our weather pages